Location: Proctor
(47.8934°N, 114.3048°W)
Time: 01:15:21
(UTC+00:00)

CAS-6 - Pass Details

Date: 04 July 2022
Orbit: 613 x 634 km, 97.9° (Epoch: 15 August)

Event Time Altitude Azimuth Distance (km) Brightness Sun altitude
Exits shadow 04:45:11 10° 118° (ESE) 2,022 ? -8.9°
Reaches altitude 10° 04:45:15 10° 117° (ESE) 1,999 ? -8.9°
Maximum altitude 04:48:43 24° 64° (ENE) 1,307 ? -9.3°
Drops below altitude 10° 04:52:12 10° 11° (N) 2,000 ? -9.7°
Sets 04:54:42 0° 358° (N) 2,908 ? -9.9°
